Regional Weather Roundup
Issued by NWS Upton, NY

Current Version | Previous Version | Text Only | Print | Product List | Glossary On
Versions: 1 2 3 4 5 6 7 8 9 10 11 12 13 14 15 16 17 18 19 20 21 22 23 24 25 26
000
ASUS41 KOKX 211505
RWROKX

Regional Weather Roundup
National Weather Service New York NY
1100 AM EDT MON MAY 21 2018

Note: "FAIR" indicates few or no clouds below 12,000 feet with no
significant weather and/or obstructions to visibility.

NYZ071-072-176-178-NJZ106-104-211600-
New York City Metro Area

CITY           SKY/WX    TMP DP  RH WIND       PRES   REMARKS
Central Park   FAIR      69  45  41 VRB6      30.23S
Bronx Bot Gard   N/A     68  45  42 SW2       30.22F
Bronx Lehman C   N/A     68  45  42 N7          N/A
LaGuardia Arpt PTSUNNY   69  46  43 NE8       30.20S
Queens College   N/A     68  45  42 NE8         N/A
Kennedy Intl   PTSUNNY   70  42  36 NE9       30.21R
Breezy Point     N/A     68 N/A N/A E10         N/A
Brooklyn Coll    N/A     70  41  35 N12         N/A
Staten Island    N/A     68  46  45 N8          N/A
Newark/Liberty PTSUNNY   71  47  42 NE7       30.20R
Teterboro      FAIR      70  49  47 N5        30.19S
$$

NYZ177-179-078>081-211600-
Long Island New York

CITY           SKY/WX    TMP DP  RH WIND       PRES   REMARKS
Jones Beach      N/A     64 N/A N/A NE6         N/A
Wantagh          N/A     70  48  46 NE5         N/A
Hempstead        N/A     70  45  40 E6        30.23S
Matinecock Pt    N/A     63 N/A N/A E8          N/A
Farmingdale    FAIR      67  49  52 N7        30.20R
MacArthur/ISP  PTSUNNY   70  53  54 NE6       30.20R
Stony Brook      N/A     66  52  59 E3          N/A
Shirley        FAIR      69  54  58 N7        30.21R
Mt Sinai Harb    N/A     66 N/A N/A CALM        N/A
Westhampton    FAIR      69  47  45 N9        30.21R
East Hampton   FAIR      67  45  44 N3        30.19R
Southold         N/A     66  46  48 N6          N/A
Montauk          N/A     66  45  46 VRB6      30.20R
$$

NYZ052-065-067-211600-
Hudson Valley

CITY           SKY/WX    TMP DP  RH WIND       PRES   REMARKS
White Plains   FAIR      68  41  37 VRB6      30.20S
Larchmont Harb   N/A     61 N/A N/A E9          N/A
Croton On Huds   N/A     70 N/A N/A NW8         N/A
Somers           N/A     66  43  42 N5          N/A
Brewster         N/A     66  43  42 N6          N/A
Newburgh       MOSUNNY   66  52  59 CALM      30.22S
Montgomery     FAIR      68  49  50 CALM      30.20S
Otisville        N/A     66  46  48 N3          N/A
Warwick          N/A     66  52  59 NW5         N/A
Suffern          N/A     66  46  48 N5          N/A
Poughkeepsie   FAIR      68  44  42 N9        30.20S
Albany         FAIR      68  44  42 N5        30.22S
$$

NJZ001-105-106-008-010-013-015-019>022-104-211600-
New Jersey

CITY           SKY/WX    TMP DP  RH WIND       PRES   REMARKS
Newark/Liberty PTSUNNY   71  47  42 NE7       30.20R
Teterboro      FAIR      70  49  47 N5        30.19S
Caldwell       FAIR      69  50  50 VRB5      30.21S
Somerville     FAIR      72  49  44 VRB7      30.19S
Linden         FAIR      71  48  44 N7        30.20F
Perth Amboy      N/A     64 N/A N/A SE9         N/A
Sussex         FAIR      69  53  56 E5        30.21S
Andover          N/A     68  50  52 CALM      30.22S
Trenton        NOT AVBL
Millville      FAIR      72  55  55 NE6       30.20S
Atlantic City  FAIR      72  58  61 VRB7      30.20R
Wrightstown    FAIR      70  55  59 NW5       30.18
Toms River     FAIR      70  54  56 VRB3      30.21R
Belmar         FAIR      70  48  45 N8        30.22R
$$

PAZ047>061-062-071-211600-
Eastern Pennsylvania

CITY           SKY/WX    TMP DP  RH WIND       PRES   REMARKS
Philadelphia   FAIR      71  51  49 N13       30.21S
Allentown      FAIR      70  49  47 NE6       30.22S
Scranton       FAIR      64  50  60 W5        30.24F
$$

CTZ002-004>006-009-010-012-RIZ004-006-007-MAZ004-011-015-211600-
Southern New England

 In CT

CITY           SKY/WX    TMP DP  RH WIND       PRES   REMARKS
Bradley Intl   FAIR      68  45  43 N5        30.19F
Hartford       FAIR      68  48  48 NW7       30.19S
Danbury        FAIR      67  45  45 CALM      30.22S
Wtrbury/Oxford FAIR      64  46  52 NW6       30.21S
Norwalk Harbor   N/A     64 N/A N/A E6          N/A
Bridgeport     FAIR      68  51  54 S8        30.20R
Meriden        FAIR      69  44  40 NE6       30.20R
New Haven      FAIR      70  47  43 VRB6      30.19R
Chester        FAIR      72  39  30 VRB7      30.19S
Groton         FAIR      69  44  40 CALM      30.17S
Willimantic    FAIR      70  41  34 VRB5      30.18F

 In RI

CITY           SKY/WX    TMP DP  RH WIND       PRES   REMARKS
Providence     FAIR      69  46  43 CALM      30.18R
Block Island     N/A    N/A N/A N/A MISG        N/A
Westerly       FAIR      72  44  36 VRB5      30.18S

In MA

CITY           SKY/WX    TMP DP  RH WIND       PRES   REMARKS
Boston         FAIR      67  47  48 SE6       30.16S
Worcester      FAIR      66  38  35 VRB3      30.18F
Westfield      FAIR      68  39  34 MISG      30.19S
Provincetown   FAIR      60  51  72 NW8       30.18R
Nantucket      FAIR      67  46  47 N13       30.16S
$$

ANZ330-335-338-340-345-350-353-355-211600-
Coastal Marine Observations


STATION/POSITION TIME  SKY/WX   TEMP    WIND        PRES    VSBY  WAVE
                                AIR SEA DIR/SP/G                  HT/PER
                 (UTC)          (F)     (DEG/KT/KT) (MB)    (MI)  (FT/S)
NY Harb Entrance 1450            59 54   20/  4/  4 1022.8          3/ 8
20 S Fire Island 1450            56 53   10/  6/  6 1022.8          3/ 7
23 SSW Montauk P 1450            56 52  350/  6/  8 1022.7          4/ 8
15 E Barnegat Li 1430               56                N/A           4/ 8
Hudson Canyon    1450            55 53   10/ 10/ 12 1021.7          4/ 8
Kings Point      1442            66 56   60/  4/  8 1023.9
Execution Rocks  NOT AVBL
Western LI Sound NOT AVBL
Central LI Sound 1445            57     220/  6/  6   N/A           0
Robbins Reef     1442            66      30/  9/ 10 1023.3
$$


>>>>>>>>>>>>>>>>>>>>>>>>>>>> KEY <<<<<<<<<<<<<<<<<<<<<<<<<<<
>                                                          <
>     SKY/WX - Sky Condition/Present Weather               <
>     TMP    - Temperature in Fahrenheit                   <
>     DP     - Dew Point in Fahrenheit                     <
>     RH     - Relative Humidity in Percent                <
>     WIND   - Direction (from) and Speed in MPH           <
>     PRES   - Mean Sea Level Pressure (inches of Hg)      <
>     WCI    - Wind Chill Index                            <
>     VSB    - Visibility in Miles                         <
>     HX     - Heat Index                                  <
>     TC     - Temperature in Celsius                      <
>     VRB    - Varibale Wind Direction                     <
>                                                          <
>>>>>>>>>>>>>>>>>>>>>>>>>>>> KEY <<<<<<<<<<<<<<<<<<<<<<<<<<<




USA.gov is the U.S. government's official web portal to all federal, state and local government web resources and services.